Tiempo cada hora Mullanurovo

Hoy, 25 Octubre, Domingo

Tiempo Temperatura Precipitaciones Viento Presión Humedad
00:00 +6°C° 0.1 mm 4 mps 739 mmHg 91%
01:00 +6°C° 0.1 mm 4 mps 739 mmHg 92%
02:00 +7°C° 0 mm 3 mps 739 mmHg 93%
03:00 +5°C° 0 mm 3 mps 740 mmHg 93%
04:00 +5°C° 0 mm 3 mps 740 mmHg 94%
05:00 +4°C° 0 mm 3 mps 740 mmHg 94%
06:00 +4°C° 0 mm 3 mps 740 mmHg 94%
07:00 +4°C° 0 mm 3 mps 740 mmHg 95%
08:00 +5°C° 0 mm 3 mps 740 mmHg 90%
09:00 +5°C° 0 mm 3 mps 740 mmHg 85%
10:00 +7°C° 0 mm 2 mps 740 mmHg 80%
11:00 +7°C° 0 mm 2 mps 740 mmHg 78%
12:00 +7°C° 0 mm 2 mps 740 mmHg 77%
13:00 +8°C° 0 mm 1 mps 740 mmHg 75%
14:00 +8°C° 0 mm 1 mps 739 mmHg 78%
15:00 +8°C° 0 mm 1 mps 739 mmHg 80%
16:00 +8°C° 0 mm 1 mps 739 mmHg 83%
17:00 +7°C° 0.4 mm 1 mps 739 mmHg 85%
18:00 +6°C° 0.4 mm 2 mps 738 mmHg 88%
19:00 +4°C° 0.4 mm 3 mps 738 mmHg 90%
20:00 +4°C° 0.6 mm 3 mps 738 mmHg 91%
21:00 +3°C° 0.6 mm 4 mps 738 mmHg 92%
22:00 +3°C° 0.6 mm 4 mps 738 mmHg 94%
23:00 +3°C° 0.3 mm 4 mps 738 mmHg 92%

Mañana, 26 Octubre, Lunes

Tiempo Temperatura Precipitaciones Viento Presión Humedad
00:00 +3°C° 0.3 mm 4 mps 738 mmHg 91%
01:00 +1°C° 0.3 mm 4 mps 738 mmHg 89%
02:00 +1°C° 0 mm 5 mps 739 mmHg 88%
03:00 -1°C° 0 mm 6 mps 739 mmHg 87%
04:00 -1°C° 0 mm 6 mps 739 mmHg 86%
05:00 -2°C° 0 mm 6 mps 740 mmHg 86%
06:00 -3°C° 0 mm 6 mps 740 mmHg 86%
07:00 -3°C° 0 mm 6 mps 741 mmHg 85%
08:00 -3°C° 0 mm 6 mps 741 mmHg 83%
09:00 -3°C° 0 mm 6 mps 742 mmHg 81%
10:00 -2°C° 0 mm 7 mps 742 mmHg 79%
11:00 -2°C° 0 mm 7 mps 742 mmHg 77%
12:00 -2°C° 0 mm 7 mps 743 mmHg 75%
13:00 -1°C° 0 mm 7 mps 743 mmHg 73%
14:00 -2°C° 0.1 mm 7 mps 743 mmHg 79%
15:00 -3°C° 0.1 mm 7 mps 743 mmHg 84%
16:00 -3°C° 0.1 mm 7 mps 744 mmHg 90%
17:00 -3°C° 0.3 mm 7 mps 744 mmHg 86%
18:00 -3°C° 0.3 mm 7 mps 745 mmHg 81%
19:00 -3°C° 0.3 mm 7 mps 745 mmHg 77%
20:00 -4°C° 0 mm 7 mps 746 mmHg 78%
21:00 -4°C° 0 mm 7 mps 746 mmHg 79%
22:00 -4°C° 0 mm 7 mps 747 mmHg 79%
23:00 -4°C° 0 mm 7 mps 747 mmHg 79%

Pasado mañana, 27 Octubre, Martes

Tiempo Temperatura Precipitaciones Viento Presión Humedad
00:00 -4°C° 0 mm 7 mps 748 mmHg 79%
01:00 -4°C° 0 mm 7 mps 748 mmHg 79%
02:00 -4°C° 0 mm 7 mps 749 mmHg 78%
03:00 -4°C° 0 mm 7 mps 749 mmHg 77%
04:00 -5°C° 0 mm 8 mps 749 mmHg 76%
05:00 -4°C° 0 mm 7 mps 750 mmHg 77%
06:00 -6°C° 0 mm 7 mps 750 mmHg 79%
07:00 -6°C° 0 mm 7 mps 751 mmHg 80%
08:00 -4°C° 0 mm 7 mps 751 mmHg 78%
09:00 -4°C° 0 mm 6 mps 752 mmHg 77%
10:00 -4°C° 0 mm 6 mps 752 mmHg 75%
11:00 -3°C° 0 mm 6 mps 753 mmHg 74%
12:00 -3°C° 0 mm 6 mps 753 mmHg 73%
13:00 -2°C° 0 mm 6 mps 754 mmHg 72%
14:00 -2°C° 0 mm 6 mps 754 mmHg 72%
15:00 -1°C° 0 mm 5 mps 754 mmHg 73%
16:00 -2°C° 0 mm 4 mps 754 mmHg 73%
17:00 -2°C° 0 mm 4 mps 755 mmHg 76%
18:00 -3°C° 0 mm 4 mps 755 mmHg 79%
19:00 -3°C° 0 mm 4 mps 756 mmHg 82%
20:00 -4°C° 0 mm 3 mps 756 mmHg 83%
21:00 -4°C° 0 mm 3 mps 756 mmHg 84%
22:00 -3°C° 0 mm 2 mps 756 mmHg 85%
23:00 -3°C° 0 mm 2 mps 757 mmHg 86%

28 Octubre, Miércoles

Tiempo Temperatura Precipitaciones Viento Presión Humedad
00:00 -3°C° 0 mm 2 mps 757 mmHg 86%
01:00 -3°C° 0 mm 2 mps 757 mmHg 86%
02:00 -3°C° 0 mm 2 mps 757 mmHg 86%
03:00 -3°C° 0 mm 2 mps 758 mmHg 86%
04:00 -3°C° 0 mm 2 mps 758 mmHg 86%
05:00 -1°C° 0 mm 1 mps 758 mmHg 86%
06:00 -1°C° 0 mm 1 mps 758 mmHg 85%
07:00 -1°C° 0 mm 1 mps 758 mmHg 85%
08:00 -1°C° 0 mm 1 mps 759 mmHg 81%
09:00 0°C° 0 mm 1 mps 759 mmHg 77%
10:00 +1°C° 0 mm 1 mps 759 mmHg 73%
11:00 +1°C° 0 mm 1 mps 759 mmHg 70%
12:00 +2°C° 0 mm 1 mps 760 mmHg 66%
13:00 +3°C° 0 mm 1 mps 760 mmHg 63%
14:00 +3°C° 0 mm 1 mps 760 mmHg 66%
15:00 +2°C° 0 mm 1 mps 760 mmHg 68%
16:00 +2°C° 0 mm 1 mps 760 mmHg 71%
17:00 +1°C° 0 mm 1 mps 760 mmHg 73%
18:00 +1°C° 0 mm 1 mps 760 mmHg 75%
19:00 -2°C° 0 mm 2 mps 760 mmHg 76%
20:00 -2°C° 0 mm 2 mps 760 mmHg 77%
21:00 -2°C° 0 mm 2 mps 760 mmHg 77%
22:00 -2°C° 0 mm 2 mps 760 mmHg 78%
23:00 -2°C° 0 mm 2 mps 760 mmHg 78%

29 Octubre, Jueves

Tiempo Temperatura Precipitaciones Viento Presión Humedad
00:00 -2°C° 0 mm 2 mps 760 mmHg 78%
01:00 -2°C° 0 mm 2 mps 760 mmHg 77%
02:00 -2°C° 0 mm 3 mps 760 mmHg 77%
03:00 -2°C° 0 mm 3 mps 760 mmHg 77%
04:00 -2°C° 0 mm 3 mps 760 mmHg 77%
05:00 -2°C° 0 mm 3 mps 760 mmHg 76%
06:00 -2°C° 0 mm 3 mps 760 mmHg 76%
07:00 -2°C° 0 mm 3 mps 760 mmHg 76%
08:00 -2°C° 0 mm 4 mps 760 mmHg 72%
09:00 -1°C° 0 mm 4 mps 760 mmHg 68%
10:00 0°C° 0 mm 5 mps 760 mmHg 63%
11:00 +1°C° 0 mm 5 mps 760 mmHg 61%
12:00 +2°C° 0 mm 5 mps 760 mmHg 58%
13:00 +3°C° 0 mm 5 mps 760 mmHg 56%
14:00 +3°C° 0 mm 4 mps 760 mmHg 59%
15:00 +1°C° 0 mm 4 mps 760 mmHg 63%
16:00 +2°C° 0 mm 3 mps 760 mmHg 67%
17:00 +1°C° 0 mm 3 mps 760 mmHg 70%
18:00 0°C° 0 mm 3 mps 760 mmHg 73%
19:00 -1°C° 0 mm 3 mps 760 mmHg 76%
20:00 -1°C° 0 mm 3 mps 760 mmHg 77%
21:00 -1°C° 0 mm 3 mps 760 mmHg 78%
22:00 -1°C° 0 mm 3 mps 760 mmHg 79%
23:00 -1°C° 0 mm 3 mps 760 mmHg 78%

30 Octubre, Viernes

Tiempo Temperatura Precipitaciones Viento Presión Humedad
00:00 -1°C° 0 mm 3 mps 760 mmHg 78%
01:00 -1°C° 0 mm 3 mps 760 mmHg 78%
02:00 -1°C° 0 mm 3 mps 760 mmHg 77%
03:00 -1°C° 0 mm 3 mps 760 mmHg 77%
04:00 -1°C° 0 mm 3 mps 760 mmHg 77%
05:00 -1°C° 0 mm 3 mps 759 mmHg 77%
06:00 -1°C° 0 mm 3 mps 759 mmHg 76%
07:00 -1°C° 0 mm 3 mps 759 mmHg 76%
08:00 -1°C° 0 mm 4 mps 759 mmHg 71%
09:00 0°C° 0 mm 4 mps 759 mmHg 66%
10:00 +1°C° 0 mm 4 mps 759 mmHg 61%
11:00 +2°C° 0 mm 5 mps 759 mmHg 59%
12:00 +2°C° 0 mm 5 mps 759 mmHg 58%
13:00 +3°C° 0 mm 5 mps 758 mmHg 56%
14:00 +3°C° 0 mm 5 mps 758 mmHg 59%
15:00 +3°C° 0 mm 4 mps 758 mmHg 62%
16:00 +1°C° 0 mm 4 mps 758 mmHg 64%
17:00 +1°C° 0 mm 4 mps 757 mmHg 65%
18:00 0°C° 0 mm 4 mps 757 mmHg 66%
19:00 0°C° 0 mm 4 mps 757 mmHg 66%
20:00 0°C° 0 mm 4 mps 757 mmHg 66%
21:00 0°C° 0 mm 4 mps 757 mmHg 65%
22:00 -1°C° 0 mm 5 mps 756 mmHg 64%
23:00 -1°C° 0 mm 4 mps 756 mmHg 64%
Mostrar más

Necesitamos Su Consentimiento

Meteoprog y nuestros Proveedores de Servicios pueden almacenar y acceder a sus datos personales como cookies, identificadores de dispositivo u otras tecnologías similares de su dispositivo y procesar dichos datos para personalizar contenido y anuncios, además de ofrecer funciones de redes sociales y analizar el tráfico.

  • Almacenar y/o acceder a información en su dispositivo

    Se puede almacenar o acceder a cookies, identificadores de dispositivo u otra información de su dispositivo para los fines anteriormente indicados.

  • Anuncios y contenido personalizados, medición de anuncios y contenido, percepciones del público, y desarrollo de productos

    Los anuncios y el contenido pueden personalizarse en base a su perfil. Se pueden añadir más datos para personalizar mejor los anuncios y contenidos. Se puede medir el rendimiento de los anuncios y contenidos. Se puede obtener la percepción sobre el público que ha visto los anuncios y contenidos. Dichos datos pueden usarse para desarrollar o mejorar la experiencia del usuario, sistemas y software.

Al hacer clic en ‘Estoy De Acuerdo’ usted permitirá el uso de las cookies, identificadores de dispositivo, balizas web u otras tecnologías similares indicadas. Su configuración puede cambiarse desde el navegador de su dispositivo.

Para ciertos fines, los intereses legítimos pueden ser considerados por encima del consentimiento. Puede leer más sobre ello en nuestra Política de Privacidad y Cookies.